EW3317 Weather Reports


time (UTC)temp
C
wind
direction
speed
KPH
gust
KPH
rain 1hr
cm
rain 24hr
cm
rain mn
cm
humidity
%
barometer
mb
20260502151529 16 354 8.0 22.5 0.00 0.00 0.00 22 1018.9
20260502130105 8 30 4.8 17.7 0.00 0.00 0.00 39 1019.8
20260502123059 5 10 14.5 22.5 0.00 0.00 0.00 45 1019.9
20260502121549 6 4 16.1 25.7 0.00 0.00 0.00 42 1019.8
20260502114548 7 4 11.3 19.3 0.00 0.00 0.00 38 1020.0
20260502113043 7 9 11.3 19.3 0.00 0.00 0.00 39 1020.0
20260502111547 7 4 11.3 17.7 0.00 0.00 0.00 38 1020.2
20260502110042 7 4 8.0 19.3 0.00 0.00 0.00 39 1020.4
20260502104537 7 18 1.6 9.7 0.00 0.00 0.00 40 1020.5
20260502103037 6 21 1.6 9.7 0.00 0.00 0.00 41 1020.6
20260502101532 6 22 0.0 6.4 0.00 0.00 0.00 44 1020.6
20260502091528 5 44 0.0 3.2 0.00 0.00 0.00 45 1020.4
20260502071514 5 4 6.4 14.5 0.00 0.00 0.00 50 1021.8
20260502070012 5 15 6.4 12.9 0.00 0.00 0.00 53 1022.0
20260502064519 5 15 0.0 6.4 0.00 0.00 0.00 52 1022.1
20260502063008 5 15 6.4 14.5 0.00 0.00 0.00 50 1022.1
20260502061505 5 21 3.2 14.5 0.00 0.00 0.00 51 1022.1
20260502060002 5 8 4.8 12.9 0.00 0.00 0.00 53 1022.2
20260502054502 5 8 8.0 14.5 0.00 0.00 0.00 52 1022.2
20260502053001 5 11 4.8 9.7 0.00 0.00 0.00 53 1022.3
20260502051500 5 10 4.8 12.9 0.00 0.00 0.00 54 1022.4
20260502050100 5 4 4.8 8.0 0.00 0.00 0.00 54 1022.4
20260502044600 6 4 1.6 12.9 0.00 0.00 0.00 52 1022.4
20260502043107 6 4 4.8 8.0 0.00 0.00 0.00 53 1022.4
20260502041559 7 8 8.0 16.1 0.00 0.00 0.00 49 1022.5
20260502040058 6 11 1.6 8.0 0.00 0.00 0.00 54 1022.4
20260502034558 6 11 3.2 6.4 0.00 0.00 0.00 53 1022.4
20260502033057 6 11 1.6 6.4 0.00 0.00 0.00 50 1022.4
20260502031600 7 359 0.0 8.0 0.00 0.00 0.00 50 1022.2
20260502030057 8 349 3.2 6.4 0.00 0.00 0.00 47 1022.0
20260502024557 9 348 0.0 8.0 0.00 0.00 0.00 43 1021.8
20260502023056 10 226 1.6 4.8 0.00 0.00 0.00 39 1021.5
20260502021556 10 102 0.0 3.2 0.00 0.00 0.00 42 1021.5
20260502020055 10 93 0.0 1.6 0.00 0.00 0.00 41 1021.3
20260502014600 11 93 0.0 6.4 0.00 0.00 0.00 37 1021.2
20260502013057 12 106 0.0 3.2 0.00 0.00 0.00 36 1021.1
20260502011554 11 85 0.0 1.6 0.00 0.00 0.00 38 1021.1
20260502010059 12 84 0.0 6.4 0.00 0.00 0.00 34 1021.1
20260502004600 13 95 0.0 6.4 0.00 0.00 0.00 30 1021.0
20260502003052 13 56 3.2 16.1 0.00 0.00 0.00 29 1021.0
20260502001551 13 73 0.0 3.2 0.00 0.00 0.00 29 1021.1
20260501234551 14 59 1.6 8.0 0.00 0.00 0.00 28 1021.2
20260501233051 15 101 0.0 6.4 0.00 0.00 0.00 27 1021.1
20260501231551 14 170 0.0 4.8 0.00 0.00 0.00 28 1021.1
20260501230049 14 88 0.0 1.6 0.00 0.00 0.00 29 1021.1
20260501224548 14 81 0.0 11.3 0.00 0.00 0.00 29 1021.1
20260501223047 14 147 0.0 9.7 0.00 0.00 0.00 27 1021.1
20260501221547 14 108 0.0 12.9 0.00 0.00 0.00 28 1021.0
20260501220054 15 103 0.0 6.4 0.00 0.00 0.00 26 1021.2
20260501214545 15 25 0.0 14.5 0.00 0.00 0.00 26 1021.3
20260501213041 15 35 1.6 12.9 0.00 0.00 0.00 28 1021.4
20260501211541 14 146 0.0 3.2 0.00 0.00 0.00 27 1021.6
20260501210039 14 230 3.2 14.5 0.00 0.00 0.00 28 1021.8
20260501204538 15 223 0.0 11.3 0.00 0.00 0.00 28 1021.8
20260501203036 14 224 0.0 14.5 0.00 0.00 0.00 28 1021.8
20260501201532 13 271 0.0 12.9 0.00 0.00 0.00 29 1022.0
20260501200029 12 312 6.4 20.9 0.00 0.00 0.00 31 1022.2
20260501194533 12 342 0.0 9.7 0.00 0.00 0.00 31 1022.3
20260501193028 12 287 11.3 17.7 0.00 0.00 0.00 30 1022.3
20260501191527 13 320 3.2 9.7 0.00 0.00 0.00 30 1022.4
20260501190027 13 359 3.2 9.7 0.00 0.00 0.00 30 1022.5
20260501184526 13 297 6.4 12.9 0.00 0.00 0.00 29 1022.5
20260501183031 13 190 0.0 6.4 0.00 0.00 0.00 31 1022.6
20260501181522 12 303 0.0 14.5 0.00 0.00 0.00 31 1022.7
20260501180029 12 157 1.6 9.7 0.00 0.00 0.00 31 1022.6
20260501174524 12 149 0.0 8.0 0.00 0.00 0.00 32 1022.7
20260501173018 12 195 4.8 14.5 0.00 0.00 0.00 32 1022.7
20260501171519 11 147 4.8 17.7 0.00 0.00 0.00 31 1022.8
20260501170017 11 147 0.0 12.9 0.00 0.00 0.00 34 1022.8
20260501164517 12 143 0.0 14.5 0.00 0.00 0.00 32 1022.8
20260501163014 12 49 0.0 17.7 0.00 0.00 0.00 31 1022.9
20260501161511 11 343 0.0 17.7 0.00 0.00 0.00 31 1022.9
20260501160012 11 136 0.0 14.5 0.00 0.00 0.00 31 1023.0
20260501154506 11 46 3.2 9.7 0.00 0.00 0.00 31 1023.0
20260501153113 11 37 3.2 8.0 0.00 0.00 0.00 32 1022.9